Location: Unspecified
(49.9820°N, 20.4363°E)
Time: 05:08:55
(UTC+02:00)

Vanguard 3 - Pass Details

Date: 15 May 2026
Orbit: 507 x 3204 km, 33.3° (Epoch: 6 June)

Event Time Altitude Azimuth Distance (km) Brightness Sun altitude
Rises 14:26:10 0° 230° (SW) 6,724 12.4 51.8°
Reaches altitude 10° 14:30:50 10° 224° (SW) 5,914 12.4 51.3°
Maximum altitude 14:47:39 40° 164° (SSE) 4,091 11.4 49.2°
Drops below altitude 10° 15:02:51 10° 103° (ESE) 5,389 11.1 47.2°
Sets 15:06:50 0° 97° (E) 6,101 11.3 46.7°
